Wind_Speed
12 13 14 17 20 22 25 28 30 32 35 39 42 45 48 52 54 57 58 60 60 61 61 63 64 65 67 68 69 70 70 69 67 64 62 61 60 59 59 59 60 60 60 60
15 15 16 18 20 23 26 28 30 33 35 39 42 46 49 51 55 58 60 61 62 63 63 63 64 65 67 68 69 69 69 68 66 64 62 60 59 58 58 58 58 59 59 59
17 18 19 19 21 23 26 29 32 34 36 39 42 45 49 52 55 58 61 63 64 64 64 64 65 66 67 68 68 68 68 67 66 63 61 60 59 58 57 57 57 57 57 58
21 21 21 22 24 25 27 30 32 34 37 39 42 45 49 52 55 58 61 63 65 66 66 66 65 66 66 67 68 68 68 67 65 63 61 59 58 57 57 56 56 55 56 56
25 25 25 25 26 28 29 29 32 35 38 40 43 45 48 52 55 58 61 63 65 66 67 67 66 66 66 67 68 68 67 67 65 62 60 58 57 57 56 55 55 54 54 55
29 29 29 28 30 31 32 32 34 37 39 42 45 47 49 52 55 57 60 63 65 67 67 67 67 66 66 67 67 67 67 67 65 62 59 57 57 56 56 55 54 54 53 53
32 32 31 32 33 34 34 35 37 38 41 43 45 47 50 52 55 57 60 62 64 66 67 68 68 67 66 66 66 67 67 66 65 62 59 57 56 56 55 55 54 53 52 52
35 34 33 34 35 36 36 36 38 39 41 44 46 47 49 51 54 56 59 61 64 66 67 68 68 67 66 66 66 66 66 66 65 63 59 56 55 55 55 54 53 51 50 50
37 35 35 36 37 38 39 39 40 41 42 45 46 48 49 51 54 56 58 60 63 64 66 67 68 67 66 66 66 66 66 65 65 64 60 56 54 54 53 53 52 50 49 48
39 35 36 38 39 40 41 41 42 43 44 46 47 48 49 51 53 55 57 59 61 63 65 66 67 67 66 65 65 65 65 64 64 63 61 58 54 53 52 51 50 49 48 47
40 36 37 38 39 41 42 43 44 44 45 47 49 49 49 50 52 54 56 58 60 61 63 65 67 67 66 65 65 64 64 64 63 62 61 58 55 52 51 50 50 49 48 47
41 38 41 40 39 41 43 44 45 46 47 48 49 50 50 50 52 53 55 57 58 60 62 63 66 66 66 64 64 63 63 63 62 62 60 57 54 53 51 50 50 49 48 47
43 42 44 44 43 43 45 45 46 47 48 49 50 51 50 50 52 53 55 56 57 58 60 62 64 65 65 64 63 62 62 62 61 61 59 57 53 51 50 50 49 48 47 46
46 47 48 47 47 47 47 48 48 49 50 51 52 52 52 51 52 53 55 55 56 57 58 60 62 64 64 63 62 61 61 61 61 60 59 57 54 51 48 47 47 47 46 45
52 53 54 53 51 50 51 52 53 52 52 53 53 53 53 53 54 54 55 55 55 55 56 57 60 62 63 62 61 60 60 60 60 59 58 57 54 51 48 46 46 46 45 44
60 61 60 59 57 55 55 55 56 55 55 55 55 55 55 55 55 55 55 55 54 54 54 55 58 60 61 61 60 58 58 58 58 58 57 56 54 51 48 46 45 44 44 42
66 65 65 64 62 59 58 58 58 58 58 57 57 57 57 57 57 56 55 54 54 53 53 53 55 58 59 59 58 57 56 57 57 57 56 56 54 51 48 45 44 43 43 42
68 68 67 66 64 62 61 60 59 58 58 59 59 58 58 58 58 57 55 54 53 52 51 52 53 55 57 57 56 55 55 55 55 55 55 55 54 51 48 45 43 42 43 42
67 68 67 66 65 64 63 62 61 60 60 59 59 59 58 58 58 57 55 53 51 50 50 50 51 53 55 55 54 53 53 53 53 53 54 54 53 51 48 45 42 41 41 40
65 66 66 66 64 63 62 61 61 60 59 59 58 58 58 58 58 57 55 52 50 49 49 48 49 51 52 53 52 51 50 51 51 52 52 52 52 51 48 45 42 40 40 39
64 65 65 65 64 64 62 61 60 59 58 58 57 57 57 57 57 56 53 51 50 48 47 46 47 48 50 51 50 49 48 48 49 50 50 51 51 50 48 45 42 40 38 38
66 66 65 63 62 61 61 60 58 57 57 56 56 56 56 56 55 54 52 50 49 47 45 45 45 46 48 48 48 47 46 46 47 48 48 49 49 49 48 45 42 39 38 37
66 66 66 65 64 61 59 58 57 55 55 55 55 55 55 55 54 53 51 50 48 45 44 43 43 44 45 46 46 44 44 44 45 46 46 47 48 48 47 45 42 39 37 36
68 68 67 65 64 62 59 57 55 54 52 52 53 54 55 55 53 52 51 49 46 44 42 41 41 42 43 44 43 42 41 42 43 43 44 45 46 47 46 45 42 39 37 35
68 67 66 64 62 60 59 56 54 52 51 50 50 52 54 53 52 50 49 46 44 42 40 40 39 40 41 42 41 40 39 39 40 41 42 43 44 45 45 44 42 39 36 34
67 66 64 63 62 60 57 54 53 52 51 50 49 50 51 52 51 50 47 45 43 40 39 38 38 38 39 39 39 38 37 37 38 39 40 42 43 44 44 44 41 38 36 34
67 65 63 61 60 58 56 53 53 52 52 51 50 50 50 51 50 49 46 44 41 39 38 37 36 36 37 37 37 36 35 35 36 37 39 40 41 42 43 43 41 38 35 33
Wind_Direction
290 305 318 327 334 339 342 345 348 350 352 354 354 355 355 355 355 355 354 352 351 349 348 347 347 347 347 347 348 349 349 350 351 351 351 353 354 355 356 358 360 1 3 4
286 297 309 318 325 330 335 338 342 344 348 350 351 352 353 354 354 354 354 353 352 350 349 348 347 347 348 348 349 349 350 351 352 352 352 354 355 356 357 359 1 2 4 5
280 289 299 306 315 322 327 332 336 340 343 346 348 350 351 352 352 353 353 353 352 351 350 349 348 348 348 349 350 350 351 352 353 353 354 354 356 357 358 360 1 3 4 6
277 284 292 302 308 315 321 326 331 334 337 341 344 347 348 350 350 351 351 352 352 351 350 350 349 348 349 349 350 351 352 353 353 354 354 355 356 358 359 0 2 3 5 6
276 281 288 295 303 310 315 320 324 329 333 336 340 343 345 347 348 349 349 350 351 351 351 350 349 349 349 350 351 351 352 353 354 354 355 355 356 358 359 0 2 3 5 7
276 281 287 294 299 304 309 314 319 324 329 333 336 339 342 344 345 346 347 348 349 350 350 350 350 349 349 350 351 352 352 354 354 355 355 355 357 358 359 1 2 3 5 7
275 280 286 292 296 301 306 312 316 321 325 329 332 335 337 339 342 344 345 346 348 349 350 350 350 349 349 349 351 352 352 353 355 355 355 356 357 358 359 1 2 3 4 6
272 278 285 288 292 297 302 307 311 315 319 323 327 330 333 336 339 341 342 344 346 347 349 349 349 349 349 349 350 351 352 353 354 355 356 356 357 358 360 1 2 3 4 5
272 278 282 285 289 294 298 302 306 310 314 318 322 325 329 331 335 338 339 341 343 346 347 348 348 349 348 348 349 351 352 353 354 355 356 357 357 358 360 1 2 3 3 4
272 276 279 282 286 289 293 297 301 305 309 312 317 321 324 327 331 334 336 338 341 343 345 347 348 348 348 348 349 350 351 352 353 354 356 357 357 358 359 0 1 2 3 4
272 276 276 278 283 286 289 293 297 300 304 307 311 315 319 323 326 330 333 335 338 341 343 345 346 347 347 347 348 349 350 351 353 354 355 356 357 358 359 360 1 2 4 5
272 274 275 276 278 282 285 289 292 295 299 302 306 310 314 319 322 326 330 332 335 338 341 343 345 346 346 346 347 348 349 351 352 353 355 355 356 356 358 359 0 2 3 4
272 272 273 275 277 279 281 284 287 291 294 298 301 305 310 314 318 322 326 329 332 335 338 341 343 345 345 345 346 347 348 350 351 352 354 355 356 356 357 358 359 1 2 3
269 270 269 270 272 274 277 279 282 286 289 293 297 301 305 309 314 317 322 325 328 332 335 338 341 343 344 344 345 346 347 349 350 351 353 354 355 356 357 358 358 360 1 2
270 270 269 268 268 270 272 275 278 281 285 288 292 297 301 305 309 313 317 321 325 329 332 335 338 340 342 343 343 344 346 347 349 350 352 353 355 356 356 358 359 360 0 1
272 271 271 271 270 270 271 273 276 279 282 285 288 292 296 300 304 308 313 317 321 325 329 332 335 338 340 341 342 343 344 346 347 349 351 352 354 355 356 357 358 359 0 1
273 273 273 273 272 272 272 273 274 276 278 281 284 287 291 295 299 304 308 312 316 321 325 328 332 335 338 340 340 341 342 344 346 347 349 351 353 354 355 356 357 358 360 1
273 273 273 273 274 273 272 272 273 274 276 278 280 283 287 291 294 299 303 307 311 316 321 324 328 333 336 338 338 339 341 342 344 346 348 350 352 353 354 355 356 357 359 0
271 272 273 273 274 274 273 273 272 273 274 276 278 280 283 286 290 294 298 302 307 312 316 320 325 329 333 335 336 337 339 341 343 344 346 349 350 352 353 354 354 356 357 359
275 274 274 273 272 273 273 273 273 272 272 274 276 278 280 282 285 289 293 297 302 307 312 316 321 326 330 333 334 335 337 339 341 343 345 347 349 351 352 353 353 354 356 358
279 278 277 276 274 272 272 272 273 272 272 272 273 275 277 279 282 285 289 292 297 302 307 311 317 323 327 330 332 333 335 337 339 341 343 346 348 350 351 352 353 353 354 356
281 280 280 279 277 274 272 271 271 271 270 269 270 272 274 276 279 281 284 288 292 298 303 307 313 319 324 327 330 331 333 335 337 340 342 344 347 349 350 351 351 352 353 355
281 280 279 278 277 275 273 270 269 269 269 268 267 268 270 272 275 277 280 284 288 293 298 303 309 316 320 325 327 329 330 333 335 338 340 343 345 347 349 350 350 351 352 353
280 280 279 278 276 274 272 271 268 267 267 266 265 265 265 267 270 273 276 280 285 289 294 299 306 312 317 322 325 326 328 331 333 336 339 341 343 346 348 349 349 350 350 352
278 277 275 274 274 272 270 268 266 263 262 261 261 261 261 263 265 268 272 276 281 285 290 295 302 308 314 319 322 324 325 328 332 334 337 339 342 344 346 348 348 349 349 350
276 275 273 272 271 269 266 263 260 258 257 256 257 258 258 259 261 264 269 273 278 281 286 292 299 305 311 316 319 321 323 326 330 333 336 338 340 343 345 347 348 348 348 349
274 271 269 267 266 264 261 258 255 253 252 251 251 253 254 256 259 262 265 269 273 277 282 289 296 301 307 313 316 318 320 324 328 332 334 336 339 341 344 346 347 347 347 348
Height
5866 5863 5860 5857 5853 5849 5844 5839 5834 5828 5821 5814 5806 5797 5788 5778 5767 5756 5745 5733 5721 5708 5695 5681 5667 5652 5637 5622 5606 5590 5574 5558 5542 5527 5512 5497 5483 5468 5453 5439 5424 5409 5393 5378
5861 5859 5856 5853 5849 5845 5840 5835 5830 5824 5818 5810 5802 5793 5784 5774 5764 5753 5741 5729 5716 5703 5690 5676 5662 5648 5633 5618 5602 5587 5571 5555 5540 5525 5510 5496 5481 5467 5453 5439 5424 5410 5395 5381
5857 5854 5852 5849 5846 5841 5836 5831 5826 5819 5813 5806 5798 5789 5780 5770 5760 5749 5737 5725 5712 5699 5686 5672 5658 5644 5629 5614 5599 5584 5568 5553 5538 5523 5509 5494 5481 5467 5453 5439 5426 5411 5397 5384
5851 5849 5847 5846 5840 5836 5832 5827 5821 5814 5808 5801 5794 5785 5775 5766 5755 5745 5733 5721 5709 5696 5682 5668 5654 5640 5626 5611 5596 5581 5566 5551 5536 5521 5508 5494 5480 5467 5453 5440 5427 5414 5400 5387
5844 5842 5840 5839 5834 5830 5826 5822 5816 5809 5803 5796 5788 5780 5771 5761 5751 5741 5730 5718 5705 5692 5679 5665 5651 5637 5623 5609 5594 5579 5564 5549 5535 5521 5507 5494 5481 5467 5454 5441 5428 5415 5403 5390
5836 5834 5833 5833 5828 5823 5820 5815 5810 5803 5797 5789 5781 5774 5767 5757 5747 5736 5726 5714 5702 5689 5676 5662 5648 5634 5620 5606 5592 5578 5563 5548 5534 5520 5507 5494 5481 5468 5454 5442 5429 5417 5404 5392
5828 5825 5825 5823 5819 5815 5812 5808 5802 5795 5789 5783 5775 5768 5761 5751 5742 5732 5722 5710 5698 5686 5673 5659 5646 5632 5618 5604 5590 5576 5562 5548 5534 5520 5507 5494 5481 5468 5455 5442 5429 5417 5405 5394
5820 5819 5819 5814 5810 5807 5804 5800 5794 5789 5783 5777 5770 5762 5754 5746 5737 5727 5717 5706 5695 5683 5670 5657 5643 5629 5616 5602 5589 5575 5561 5548 5534 5520 5507 5495 5482 5469 5456 5443 5431 5419 5408 5397
5812 5814 5809 5805 5802 5798 5794 5791 5786 5781 5776 5770 5763 5756 5748 5740 5732 5723 5713 5702 5691 5679 5667 5654 5640 5627 5614 5600 5587 5574 5560 5547 5533 5520 5507 5495 5483 5470 5458 5445 5434 5423 5412 5401
5802 5804 5800 5795 5792 5789 5785 5782 5778 5773 5768 5762 5756 5749 5742 5734 5726 5717 5708 5698 5687 5676 5664 5651 5638 5625 5611 5598 5585 5572 5559 5545 5532 5519 5506 5494 5483 5471 5460 5448 5437 5426 5415 5404
5791 5793 5789 5786 5783 5779 5775 5772 5768 5764 5759 5754 5748 5742 5735 5727 5720 5711 5702 5693 5683 5672 5660 5648 5635 5622 5609 5596 5583 5571 5557 5544 5531 5518 5506 5493 5482 5472 5461 5449 5438 5427 5417 5406
5781 5780 5776 5776 5773 5768 5765 5762 5758 5754 5750 5745 5739 5733 5727 5720 5713 5705 5696 5687 5678 5667 5656 5644 5632 5620 5607 5594 5582 5569 5557 5544 5531 5518 5505 5493 5481 5470 5460 5450 5438 5427 5417 5407
5768 5766 5762 5762 5760 5756 5753 5751 5747 5743 5739 5735 5730 5724 5718 5712 5705 5698 5690 5681 5672 5662 5652 5641 5629 5617 5605 5592 5580 5568 5556 5543 5531 5518 5506 5494 5482 5471 5460 5449 5439 5429 5419 5409
5755 5751 5747 5748 5745 5744 5741 5738 5735 5732 5728 5724 5719 5714 5709 5703 5697 5690 5683 5675 5666 5657 5647 5637 5626 5614 5602 5590 5578 5566 5555 5542 5530 5518 5506 5495 5483 5472 5462 5451 5441 5430 5420 5411
5738 5733 5729 5730 5731 5730 5727 5724 5722 5720 5717 5713 5709 5704 5699 5693 5688 5681 5675 5667 5660 5651 5642 5632 5622 5611 5599 5588 5576 5565 5553 5542 5530 5518 5506 5495 5484 5473 5462 5452 5442 5432 5422 5412
5718 5714 5711 5712 5714 5715 5713 5711 5709 5708 5705 5701 5697 5693 5688 5683 5678 5672 5666 5660 5652 5645 5636 5627 5617 5607 5596 5585 5574 5563 5552 5540 5529 5518 5506 5495 5483 5473 5463 5453 5443 5434 5424 5415
5694 5693 5692 5692 5696 5697 5697 5697 5695 5693 5691 5688 5685 5680 5676 5672 5667 5662 5657 5651 5645 5638 5630 5621 5612 5603 5592 5581 5571 5560 5549 5539 5528 5517 5505 5494 5483 5472 5462 5453 5444 5435 5426 5417
5672 5672 5672 5673 5676 5678 5679 5679 5678 5677 5675 5673 5670 5667 5663 5660 5655 5651 5647 5642 5636 5630 5623 5615 5607 5597 5588 5578 5567 5557 5547 5537 5526 5515 5504 5493 5483 5472 5462 5453 5444 5435 5426 5417
5652 5652 5653 5654 5656 5657 5659 5660 5659 5659 5658 5656 5654 5652 5649 5647 5643 5639 5635 5631 5626 5621 5615 5608 5600 5592 5583 5573 5563 5554 5544 5534 5524 5514 5503 5492 5482 5471 5461 5452 5443 5435 5426 5418
5634 5633 5634 5636 5637 5638 5639 5639 5639 5639 5639 5638 5637 5636 5635 5632 5629 5626 5624 5620 5616 5611 5606 5600 5593 5585 5577 5568 5559 5549 5540 5531 5521 5511 5501 5491 5481 5470 5461 5451 5443 5434 5426 5418
5615 5614 5614 5615 5617 5618 5619 5619 5620 5620 5621 5620 5620 5620 5619 5617 5615 5613 5611 5609 5605 5601 5597 5591 5585 5578 5570 5562 5553 5545 5536 5527 5518 5509 5499 5489 5479 5469 5460 5450 5442 5434 5426 5418
5594 5593 5593 5594 5595 5597 5598 5599 5600 5601 5602 5602 5603 5602 5602 5602 5600 5599 5598 5596 5593 5590 5586 5582 5576 5570 5563 5556 5548 5540 5531 5523 5515 5506 5496 5487 5477 5468 5458 5449 5441 5433 5425 5418
5573 5572 5572 5572 5573 5575 5577 5578 5580 5582 5583 5584 5585 5586 5586 5586 5585 5585 5584 5583 5581 5579 5576 5572 5568 5562 5556 5549 5541 5534 5526 5519 5511 5502 5493 5484 5475 5466 5457 5448 5439 5431 5424 5417
5552 5551 5550 5551 5552 5554 5556 5558 5560 5562 5564 5566 5568 5568 5569 5570 5571 5571 5570 5569 5569 5568 5565 5562 5558 5553 5547 5541 5535 5528 5521 5514 5506 5498 5490 5481 5473 5464 5455 5446 5438 5430 5423 5416
5529 5528 5528 5529 5530 5532 5534 5537 5540 5543 5545 5547 5549 5551 5552 5554 5555 5555 5556 5556 5556 5556 5553 5551 5548 5544 5539 5533 5528 5521 5515 5508 5501 5494 5486 5478 5470 5461 5453 5444 5436 5429 5421 5415
5505 5505 5506 5507 5509 5511 5513 5516 5519 5523 5526 5529 5531 5533 5535 5538 5540 5541 5542 5543 5544 5544 5542 5540 5538 5534 5530 5525 5520 5515 5509 5503 5496 5489 5482 5475 5467 5459 5451 5442 5434 5427 5420 5413
5480 5481 5482 5484 5487 5489 5493 5496 5500 5504 5507 5511 5514 5516 5519 5522 5525 5527 5529 5530 5531 5531 5531 5529 5527 5525 5521 5517 5512 5507 5502 5497 5491 5484 5477 5471 5463 5456 5448 5440 5432 5425 5418 5412